Simultaneous Nadir Overpasses (SNOs) Predictions

Prediction of SNOs between GOES-17 and TERRA Satellite Orbit:

Table of predicted SNOs for the next 14.0 days since TLE Epoch: 5/21/2022
Index Date Time (GOES-17) GOES-17 Lat,Lon TERRA Lat,Lon Distance(km) Time Diff (sec)
1 05/22/2022 07:14:25 -0.03,-137.17 0.76,-133.46 421.24 80
2 05/22/2022 19:32:59 0.03,-137.17 0.33,-138.62 164.87 80
3 05/24/2022 19:23:21 0.03,-137.15 -0.26,-135.65 170.68 80
4 05/25/2022 07:42:03 -0.03,-137.15 -0.82,-140.84 420.66 80
5 05/27/2022 07:29:45 -0.03,-137.13 -0.21,-137.87 85.42 80
6 05/29/2022 07:20:08 -0.02,-137.10 0.43,-134.91 249.35 80
7 05/29/2022 19:38:41 0.02,-137.10 0.65,-140.06 337.20 80
8 05/31/2022 19:26:23 0.01,-137.06 -0.00,-137.10 4.31 80
9 06/02/2022 19:16:44 0.01,-137.02 -0.62,-134.12 329.88 80
10 06/03/2022 07:38:06 -0.00,-137.01 -0.50,-139.31 261.88 80
